Regional Weather Roundup
Issued by NWS Jackson, KY

Home | Current Version | Previous Version | Graphics & Text | Print | Product List | Glossary On
Versions: 1 2 3 4 5 6 7 8 9 10 11 12 13 14 15 16 17 18 19 20 21 22 23 24 25 26 27
000
ASUS43 KJKL 290710
RWRJKL

EAST KENTUCKY HOURLY WEATHER ROUNDUP
NATIONAL WEATHER SERVICE JACKSON KY
300 AM EDT MON AUG 29 2016

NOTE: "FAIR" INDICATES FEW OR NO CLOUDS BELOW 12,000 FEET WITH
NO SIGNIFICANT WEATHER AND/OR OBSTRUCTIONS TO VISIBILITY.

* THESE REPORTS ARE NOT UNDER NWS QUALITY CONTROL AND MAY NOT
  REPORT WEATHER SUCH AS PRECIPITATION AND FOG.

KYZ079-080-083-085-087-088-110-112-115-119-120-290800
...EASTERN KENTUCKY...

CITY           SKY/WX    TMP DP  RH WIND       PRES   REMARKS
JACKSON        PTCLDY    70  67  90 CALM      30.19F
LONDON         PTCLDY    70  66  87 CALM      30.18F
SOMERSET*      CLOUDY    68  68 100 CALM      30.18F
MONTICELLO*    CLOUDY   N/A N/A N/A NE13      30.18F
WILLIAMSBURG*  MOSUNNY   68  68 100 CALM      30.18F
MIDDLESBORO*   CLOUDY    68  68 100 CALM      30.19F
HARLAN APT*    CLOUDY    72  68  88 CALM      30.20F
PIKE CO APT*     N/A     70  69  96 N3        30.20F
BIG SANDY APT* CLOUDY    72  69  91 CALM      30.18F
MOREHEAD APT*  CLOUDY    68  66  94 CALM      30.19F
$$

KYZ035-036-041-042-044-050-067-078-099-290800
...CENTRAL KENTUCKY...

CITY           SKY/WX    TMP DP  RH WIND       PRES   REMARKS
MT STERLING*   CLOUDY    70  68  94 CALM      30.19S
FLEMING/MASON* CLOUDY    70  68  92 CALM      30.18S
DANVILLE*      CLOUDY    66  64  94 CALM      30.18F
LEXINGTON      CLOUDY    72  68  87 E5        30.17F
FRANKFORT      CLOUDY    71  68  90 CALM      30.16F
LOUISVILLE     PTCLDY    74  69  85 CALM      30.14F
LEBANON*         N/A     68  68 100 CALM      30.16F
GLASGOW*       CLEAR     70  70 100 NE6       30.15F
BOWLING GREEN  CLEAR     73  69  87 CALM      30.14F
$$

KYZ091>093-OHZ055-061-077-WVZ005-015-034-035-042-290800
...SOUTHERN OHIO/WEST VIRGINIA...

CITY           SKY/WX    TMP DP  RH WIND       PRES   REMARKS
COVINGTON      PTCLDY    71  69  93 CALM      30.19R
COLUMBUS       CLOUDY    72  69  90 N6        30.18F
DAYTON         PTCLDY    68  67  96 N6        30.21F
WILMINGTON     CLOUDY    68  66  93 NE7       30.20S
HUNTINGTON     PTCLDY    71  68  90 CALM      30.15F
CHARLESTON     PTCLDY    73  70  90 CALM      30.16F
PINEVILLE*     CLEAR     69  66  89 MISG      30.26F FOG
BECKLEY        CLEAR     66  65  96 CALM      30.26S
BLUEFIELD      MOCLDY    67  58  72 E3        30.28F
LOGAN CO APT*  PTSUNNY   70  68  94 CALM      30.19S FOG
$$

VAZ002-007-008-TNZ017-027-036-066-071-290800
...SOUTHWEST VIRGINIA/EAST TENNESSEE...

CITY           SKY/WX    TMP DP  RH WIND       PRES   REMARKS
WISE*            N/A     72  72 100 CALM      30.27F
JONESVILLE*      N/A    N/A N/A N/A CALM      30.20F
ABINGDON*      CLEAR     71  65  84 E8        30.24S
BRISTOL        PTCLDY    67  66  97 CALM      30.20S
MORRISTOWN*    MOSUNNY   73  70  88 CALM      30.16F
SEVIERVILLE*   SUNNY     68  68 100 CALM      30.15F
KNOXVILLE      PTCLDY    71  68  90 NE3       30.13F
OAK RIDGE      CLEAR     71  69  93 CALM      30.15F
CROSSVILLE     CLOUDY    69  68  96 NE3       30.19F
NASHVILLE      CLEAR     74  68  81 E3        30.12F
$$

...KEY TO REMARKS...
VSB - VISIBILITY IN MILES
WCI - WIND CHILL INDEX
HX  - HEAT INDEX

$$




USA.gov is the U.S. government's official web portal to all federal, state and local government web resources and services.